| time (UTC) | temp C | wind direction | speed KPH | gust KPH | rain 1hr cm | rain 24hr cm | rain mn cm | humidity % | barometer mb |
| 20260502123016 | 22 | 0.0 | 1.6 | 0.00 | 0.00 | 0.00 | 94 | 1015.6 | |
| 20260502122016 | 22 | 0.0 | 3.2 | 0.00 | 0.00 | 0.00 | 94 | 1015.6 | |
| 20260502121036 | 21 | 0.0 | 6.4 | 0.00 | 0.00 | 0.00 | 94 | 1015.9 | |
| 20260502115016 | 21 | 0.0 | 1.6 | 0.00 | 0.00 | 0.00 | 94 | 1016.1 | |
| 20260502114016 | 20 | 0.0 | 1.6 | 0.00 | 0.00 | 0.00 | 93 | 1016.1 | |
| 20260502113017 | 20 | 0.0 | 4.8 | 0.00 | 0.00 | 0.00 | 93 | 1016.3 | |
| 20260502112036 | 20 | 203 | 1.6 | 6.4 | 0.00 | 0.00 | 0.00 | 93 | 1016.6 |
| 20260502111016 | 20 | 0.0 | 3.2 | 0.00 | 0.00 | 0.00 | 93 | 1016.6 | |
| 20260502110016 | 19 | 0.0 | 8.0 | 0.00 | 0.00 | 0.00 | 93 | 1016.8 | |
| 20260502105016 | 19 | 0.0 | 1.6 | 0.00 | 0.00 | 0.00 | 92 | 1017.0 | |
| 20260502104016 | 18 | 0.0 | 1.6 | 0.00 | 0.00 | 0.00 | 92 | 1017.0 | |
| 20260502103036 | 18 | 0.0 | 3.2 | 0.00 | 0.00 | 0.00 | 92 | 1017.2 | |
| 20260502102016 | 18 | 0.0 | 3.2 | 0.00 | 0.00 | 0.00 | 91 | 1017.2 | |
| 20260502101016 | 18 | 0.0 | 1.6 | 0.00 | 0.00 | 0.00 | 91 | 1017.2 | |
| 20260502091016 | 16 | 0.0 | 1.6 | 0.00 | 0.00 | 0.00 | 91 | 1017.8 | |
| 20260502071016 | 11 | 0.0 | 3.2 | 0.00 | 0.00 | 0.00 | 92 | 1018.2 | |
| 20260502070036 | 11 | 0.0 | 1.6 | 0.00 | 0.00 | 0.00 | 91 | 1018.2 | |
| 20260502065036 | 11 | 0.0 | 1.6 | 0.00 | 0.00 | 0.00 | 91 | 1018.2 | |
| 20260502064036 | 11 | 0.0 | 1.6 | 0.00 | 0.00 | 0.00 | 91 | 1018.2 | |
| 20260502063016 | 10 | 0.0 | 1.6 | 0.00 | 0.00 | 0.00 | 91 | 1018.2 | |
| 20260502062036 | 10 | 0.0 | 4.8 | 0.00 | 0.00 | 0.00 | 90 | 1018.3 | |
| 20260502061016 | 10 | 0.0 | 1.6 | 0.00 | 0.00 | 0.00 | 90 | 1018.4 | |
| 20260502060016 | 10 | 0.0 | 0.0 | 0.00 | 0.00 | 0.00 | 90 | 1018.3 | |
| 20260502055016 | 10 | 0.0 | 0.0 | 0.00 | 0.00 | 0.00 | 90 | 1018.2 | |
| 20260502054016 | 9 | 0.0 | 0.0 | 0.00 | 0.00 | 0.00 | 90 | 1018.3 | |
| 20260502053016 | 9 | 0.0 | 0.0 | 0.00 | 0.00 | 0.00 | 90 | 1018.2 | |
| 20260502052016 | 8 | 0.0 | 0.0 | 0.00 | 0.00 | 0.00 | 90 | 1018.1 | |
| 20260502051016 | 8 | 0.0 | 0.0 | 0.00 | 0.00 | 0.00 | 90 | 1018.2 | |
| 20260502050036 | 8 | 0.0 | 0.0 | 0.00 | 0.00 | 0.00 | 90 | 1018.2 | |
| 20260502045016 | 8 | 0.0 | 0.0 | 0.00 | 0.00 | 0.00 | 90 | 1018.1 | |
| 20260502044015 | 8 | 0.0 | 0.0 | 0.00 | 0.00 | 0.00 | 90 | 1018.1 | |
| 20260502043015 | 8 | 0.0 | 0.0 | 0.00 | 0.00 | 0.00 | 90 | 1018.2 | |
| 20260502042036 | 8 | 0.0 | 0.0 | 0.00 | 0.00 | 0.00 | 91 | 1018.1 | |
| 20260502041016 | 8 | 0.0 | 0.0 | 0.00 | 0.00 | 0.00 | 91 | 1018.2 | |
| 20260502040016 | 8 | 0.0 | 0.0 | 0.00 | 0.00 | 0.00 | 91 | 1018.3 | |
| 20260502035016 | 9 | 0.0 | 0.0 | 0.00 | 0.00 | 0.00 | 91 | 1018.4 | |
| 20260502034015 | 9 | 0.0 | 0.0 | 0.00 | 0.00 | 0.00 | 91 | 1018.4 | |
| 20260502033016 | 9 | 0.0 | 0.0 | 0.00 | 0.00 | 0.00 | 91 | 1018.4 | |
| 20260502032016 | 9 | 0.0 | 0.0 | 0.00 | 0.00 | 0.00 | 91 | 1018.6 | |
| 20260502031035 | 9 | 0.0 | 0.0 | 0.00 | 0.00 | 0.00 | 91 | 1018.5 | |
| 20260502030015 | 9 | 0.0 | 0.0 | 0.00 | 0.00 | 0.00 | 91 | 1018.5 | |
| 20260502025016 | 9 | 0.0 | 0.0 | 0.00 | 0.00 | 0.00 | 91 | 1018.5 | |
| 20260502024015 | 9 | 0.0 | 0.0 | 0.00 | 0.00 | 0.00 | 91 | 1018.4 | |
| 20260502023015 | 10 | 0.0 | 0.0 | 0.00 | 0.00 | 0.00 | 91 | 1018.6 | |
| 20260502022016 | 10 | 0.0 | 0.0 | 0.00 | 0.00 | 0.00 | 91 | 1018.6 | |
| 20260502021016 | 10 | 0.0 | 0.0 | 0.00 | 0.00 | 0.00 | 91 | 1018.6 | |
| 20260502020015 | 10 | 0.0 | 0.0 | 0.00 | 0.00 | 0.00 | 91 | 1018.5 | |
| 20260502015037 | 11 | 0.0 | 0.0 | 0.00 | 0.00 | 0.00 | 91 | 1018.6 | |
| 20260502014015 | 11 | 0.0 | 0.0 | 0.00 | 0.00 | 0.00 | 91 | 1018.8 | |
| 20260502013035 | 11 | 0.0 | 0.0 | 0.00 | 0.00 | 0.00 | 91 | 1018.9 | |
| 20260502012015 | 12 | 0.0 | 0.0 | 0.00 | 0.00 | 0.00 | 91 | 1019.0 | |
| 20260502011015 | 12 | 0.0 | 0.0 | 0.00 | 0.00 | 0.00 | 91 | 1019.2 | |
| 20260502010015 | 12 | 0.0 | 0.0 | 0.00 | 0.00 | 0.00 | 91 | 1019.2 | |
| 20260502005015 | 13 | 0.0 | 0.0 | 0.00 | 0.00 | 0.00 | 91 | 1019.4 | |
| 20260502004156 | 13 | 0.0 | 1.6 | 0.00 | 0.00 | 0.00 | 91 | 1019.6 | |
| 20260502003015 | 13 | 0.0 | 1.6 | 0.00 | 0.00 | 0.00 | 91 | 1019.6 | |
| 20260502002017 | 13 | 0.0 | 0.0 | 0.00 | 0.00 | 0.00 | 91 | 1019.6 | |
| 20260502001017 | 13 | 0.0 | 1.6 | 0.00 | 0.00 | 0.00 | 91 | 1019.7 | |
| 20260502000017 | 13 | 0.0 | 1.6 | 0.00 | 0.00 | 0.00 | 91 | 1019.6 | |
| 20260501235017 | 13 | 0.0 | 1.6 | 0.00 | 0.00 | 0.00 | 91 | 1019.6 | |
| 20260501234017 | 13 | 0.0 | 1.6 | 0.00 | 0.00 | 0.00 | 91 | 1019.7 | |
| 20260501233037 | 14 | 0.0 | 0.0 | 0.00 | 0.00 | 0.00 | 91 | 1019.7 | |
| 20260501232037 | 14 | 0.0 | 0.0 | 0.00 | 0.00 | 0.00 | 91 | 1019.6 | |
| 20260501231037 | 14 | 0.0 | 3.2 | 0.00 | 0.00 | 0.00 | 91 | 1019.7 | |
| 20260501230017 | 14 | 0.0 | 1.6 | 0.00 | 0.00 | 0.00 | 91 | 1019.8 | |
| 20260501225016 | 14 | 0.0 | 3.2 | 0.00 | 0.00 | 0.00 | 91 | 1019.8 | |
| 20260501224035 | 14 | 0.0 | 1.6 | 0.00 | 0.00 | 0.00 | 91 | 1019.7 | |
| 20260501223035 | 15 | 0.0 | 1.6 | 0.00 | 0.00 | 0.00 | 91 | 1019.7 | |
| 20260501222016 | 15 | 0.0 | 1.6 | 0.00 | 0.00 | 0.00 | 91 | 1019.8 | |
| 20260501221015 | 15 | 0.0 | 1.6 | 0.00 | 0.00 | 0.00 | 91 | 1019.6 | |
| 20260501220016 | 15 | 0.0 | 3.2 | 0.00 | 0.00 | 0.00 | 91 | 1019.5 | |
| 20260501215016 | 15 | 0.0 | 1.6 | 0.00 | 0.00 | 0.00 | 91 | 1019.7 | |
| 20260501214015 | 15 | 0.0 | 0.0 | 0.00 | 0.00 | 0.00 | 91 | 1019.7 | |
| 20260501213036 | 15 | 0.0 | 1.6 | 0.00 | 0.00 | 0.00 | 91 | 1019.7 | |
| 20260501212016 | 15 | 0.0 | 0.0 | 0.00 | 0.00 | 0.00 | 91 | 1019.7 | |
| 20260501211015 | 15 | 0.0 | 0.0 | 0.00 | 0.00 | 0.00 | 91 | 1019.7 | |
| 20260501210035 | 15 | 0.0 | 1.6 | 0.00 | 0.00 | 0.00 | 91 | 1019.6 | |
| 20260501205015 | 15 | 0.0 | 1.6 | 0.00 | 0.00 | 0.00 | 91 | 1019.6 | |
| 20260501204015 | 15 | 0.0 | 4.8 | 0.00 | 0.00 | 0.00 | 91 | 1019.5 | |
| 20260501203055 | 16 | 0.0 | 1.6 | 0.00 | 0.00 | 0.00 | 91 | 1019.5 | |
| 20260501202015 | 16 | 0.0 | 1.6 | 0.00 | 0.00 | 0.00 | 91 | 1019.4 | |
| 20260501201015 | 16 | 0.0 | 3.2 | 0.00 | 0.00 | 0.00 | 90 | 1019.2 | |
| 20260501200015 | 16 | 0.0 | 0.0 | 0.00 | 0.00 | 0.00 | 90 | 1019.2 | |
| 20260501195017 | 16 | 0.0 | 0.0 | 0.00 | 0.00 | 0.00 | 90 | 1019.1 | |
| 20260501194017 | 16 | 0.0 | 0.0 | 0.00 | 0.00 | 0.00 | 90 | 1019.1 | |
| 20260501193037 | 17 | 0.0 | 0.0 | 0.00 | 0.00 | 0.00 | 90 | 1019.0 | |
| 20260501192018 | 17 | 0.0 | 3.2 | 0.00 | 0.00 | 0.00 | 90 | 1018.9 | |
| 20260501191037 | 17 | 0.0 | 1.6 | 0.00 | 0.00 | 0.00 | 90 | 1018.8 | |
| 20260501190037 | 18 | 0.0 | 3.2 | 0.00 | 0.00 | 0.00 | 90 | 1018.8 | |
| 20260501185037 | 18 | 0.0 | 6.4 | 0.00 | 0.00 | 0.00 | 90 | 1018.8 | |
| 20260501184017 | 19 | 0.0 | 4.8 | 0.00 | 0.00 | 0.00 | 90 | 1018.8 | |
| 20260501183037 | 19 | 0.0 | 4.8 | 0.00 | 0.00 | 0.00 | 90 | 1018.7 | |
| 20260501182017 | 20 | 158 | 1.6 | 6.4 | 0.00 | 0.00 | 0.00 | 89 | 1018.7 |
| 20260501181017 | 20 | 180 | 1.6 | 9.7 | 0.00 | 0.00 | 0.00 | 89 | 1018.7 |
| 20260501180118 | 20 | 180 | 1.6 | 9.7 | 0.00 | 0.00 | 0.00 | 89 | 1018.6 |
| 20260501175037 | 21 | 180 | 1.6 | 6.4 | 0.00 | 0.00 | 0.00 | 89 | 1018.5 |
| 20260501174017 | 21 | 180 | 1.6 | 8.0 | 0.00 | 0.00 | 0.00 | 89 | 1018.5 |
| 20260501173038 | 21 | 203 | 1.6 | 9.7 | 0.00 | 0.00 | 0.00 | 89 | 1018.4 |
| 20260501172017 | 22 | 180 | 1.6 | 6.4 | 0.00 | 0.00 | 0.00 | 89 | 1018.4 |
| 20260501171017 | 22 | 180 | 1.6 | 9.7 | 0.00 | 0.00 | 0.00 | 89 | 1018.4 |
| 20260501170017 | 23 | 180 | 1.6 | 11.3 | 0.00 | 0.00 | 0.00 | 89 | 1018.5 |
| 20260501165018 | 23 | 180 | 3.2 | 9.7 | 0.00 | 0.00 | 0.00 | 89 | 1018.5 |
| 20260501164037 | 23 | 180 | 3.2 | 8.0 | 0.00 | 0.00 | 0.00 | 89 | 1018.5 |
| 20260501163017 | 25 | 180 | 1.6 | 11.3 | 0.00 | 0.00 | 0.00 | 89 | 1018.5 |
| 20260501162017 | 25 | 180 | 1.6 | 8.0 | 0.00 | 0.00 | 0.00 | 89 | 1018.6 |
| 20260501161017 | 25 | 180 | 1.6 | 9.7 | 0.00 | 0.00 | 0.00 | 89 | 1018.5 |
| 20260501160017 | 24 | 180 | 3.2 | 9.7 | 0.00 | 0.00 | 0.00 | 89 | 1018.6 |
| 20260501155037 | 23 | 180 | 1.6 | 8.0 | 0.00 | 0.00 | 0.00 | 89 | 1018.5 |
| 20260501154017 | 23 | 0.0 | 4.8 | 0.00 | 0.00 | 0.00 | 89 | 1018.6 | |
| 20260501153037 | 25 | 180 | 3.2 | 11.3 | 0.00 | 0.00 | 0.00 | 88 | 1018.7 |
| 20260501152017 | 25 | 203 | 1.6 | 6.4 | 0.00 | 0.00 | 0.00 | 88 | 1018.7 |
| 20260501151017 | 25 | 225 | 1.6 | 9.7 | 0.00 | 0.00 | 0.00 | 88 | 1018.8 |
| 20260501150017 | 27 | 225 | 1.6 | 9.7 | 0.00 | 0.00 | 0.00 | 88 | 1018.7 |
| 20260501145037 | 27 | 0.0 | 4.8 | 0.00 | 0.00 | 0.00 | 88 | 1018.9 | |
| 20260501144017 | 27 | 180 | 1.6 | 11.3 | 0.00 | 0.00 | 0.00 | 88 | 1019.0 |
| 20260501143017 | 27 | 0.0 | 3.2 | 0.00 | 0.00 | 0.00 | 88 | 1019.0 |